Location: Newark
(48.5156°N, 1.8989°W)
Time: 06:14:58
(UTC+00:00)

ISS - Visible Passes

Search period start: 15 September 2019 00:00
Search period end: 25 September 2019 00:00
Orbit: 411 x 421 km, 51.6° (Epoch: 15 September)

Date Brightness Start Highest point End Pass type
(mag) Time Alt. Az. Time Alt. Az. Time Alt. Az.
15 Sep -1.4 03:32:39 15° SE 03:32:39 15° SE 03:33:24 10° SE visible
19 Sep -1.8 20:10:58 10° SW 20:12:12 20° SSW 20:12:12 20° SSW visible
20 Sep -2.6 19:22:55 10° SSW 19:25:43 25° SE 19:26:18 24° SE visible
20 Sep -0.8 20:58:53 10° WSW 20:59:14 12° WSW 20:59:14 12° WSW visible
21 Sep -2.0 18:35:11 10° S 18:37:22 17° SE 18:39:36 10° E visible
21 Sep -3.4 20:10:23 10° WSW 20:13:05 55° SW 20:13:05 55° SW visible
22 Sep -3.6 19:21:59 10° SW 19:25:13 54° SSE 19:26:47 27° E visible
22 Sep -1.0 20:58:44 10° W 20:59:41 17° W 20:59:41 17° W visible
23 Sep -3.0 18:33:42 10° SW 18:36:46 36° SE 18:39:51 10° ENE visible
23 Sep -3.4 20:10:06 10° W 20:13:14 61° NW 20:13:14 61° NW visible
24 Sep -3.8 19:21:30 10° WSW 19:24:51 81° NNW 19:26:40 24° ENE visible
24 Sep -0.9 20:58:34 10° WNW 20:59:34 18° WNW 20:59:34 18° WNW visible
